This demonstration page uses our WeatherBlox Daily Observations layout. Learn more.

Left ArrowRight Arrow

39.51506, -84.39828

Hourly Observations for May 31, 2021

Temp ( °F °C ) Dew Point ( °F °C ) Humidity (%) Winds ( mph kmh ) Pressure ( in mb ) Visibility ( mi km ) Precip ( " mm )
12:15 am 00:15 Hazy 46 8 N/A N/A Calm 30.31 1027 7 11 0.00 0.00
12:35 am 00:35 Clear 46 8 N/A N/A Calm 30.31 1027 10 16 0.00 0.00
12:55 am 00:55 Clear 46 8 N/A N/A NE 5 7 30.32 1027 10 16 0.00 0.00
1:15 am 01:15 Clear 46 8 N/A N/A E 3 6 30.32 1027 10 16 0.00 0.00
1:35 am 01:35 Clear 46 8 N/A N/A N 3 6 30.32 1027 10 16 0.00 0.00
1:55 am 01:55 Hazy 46 8 N/A N/A Calm 30.32 1027 7 11 0.00 0.00
2:15 am 02:15 Hazy 46 8 N/A N/A Calm 30.32 1027 5 8 0.00 0.00
2:35 am 02:35 Mostly Cloudy with Fog 45 7 N/A N/A Calm 30.34 1027 1 1 0.00 0.00
2:55 am 02:55 Mostly Cloudy with Mist and Fog 43 6 N/A N/A Calm 30.33 1027 2 2 0.00 0.00
3:15 am 03:15 Clear with Mist and Fog 43 6 N/A N/A Calm 30.34 1027 3 5 0.00 0.00
3:35 am 03:35 Mostly Cloudy with Fog 45 7 N/A N/A Calm 30.33 1027 1 1 0.00 0.00
3:55 am 03:55 Clear with Mist and Fog 45 7 N/A N/A Calm 30.33 1027 3 5 0.00 0.00
4:15 am 04:15 Mostly Cloudy with Fog 41 5 N/A N/A Calm 30.33 1027 0 0 0.00 0.00
4:35 am 04:35 Mostly Cloudy with Fog 41 5 N/A N/A Calm 30.34 1027 1 1 0.00 0.00
4:55 am 04:55 Mostly Cloudy with Mist and Fog 43 6 N/A N/A Calm 30.34 1027 1 1 0.00 0.00
5:15 am 05:15 Clear with Mist and Fog 43 6 N/A N/A Calm 30.34 1027 3 4 0.00 0.00
5:35 am 05:35 Clear with Mist and Fog 43 6 N/A N/A Calm 30.34 1027 4 6 0.00 0.00
5:55 am 05:55 Clear with Mist and Fog 43 6 N/A N/A Calm 30.35 1028 4 6 0.00 0.00
6:15 am 06:15 Hazy 43 6 N/A N/A NNE 3 6 30.36 1028 4 6 0.00 0.00
6:35 am 06:35 Hazy 43 6 N/A N/A Calm 30.37 1028 5 8 0.00 0.00
6:55 am 06:55 Hazy 45 7 N/A N/A Calm 30.37 1028 4 6 0.00 0.00
7:15 am 07:15 Hazy 46 8 N/A N/A Calm 30.36 1028 4 6 0.00 0.00
7:35 am 07:35 Hazy 46 8 N/A N/A Calm 30.37 1029 5 8 0.00 0.00
7:55 am 07:55 Hazy 48 9 N/A N/A Calm 30.37 1028 5 8 0.00 0.00
8:15 am 08:15 Hazy 48 9 N/A N/A Calm 30.37 1028 5 8 0.00 0.00
8:35 am 08:35 Sunny 50 10 N/A N/A Calm 30.37 1028 7 11 0.00 0.00
8:55 am 08:55 Sunny 53 11.4 51 10.6 95 95 Calm 30.37 1028 7 11 0.00 0.00
9:15 am 09:15 Sunny with Mist and Fog 54 12 51 10.8 92 92 Calm 30.36 1028 7 11 0.00 0.00
9:35 am 09:35 Sunny 55 12.9 51 10.4 85 85 ENE 3 6 30.38 1029 10 16 0.00 0.00
9:55 am 09:55 Sunny 56 13.4 51 10.3 82 82 Calm 30.38 1029 10 16 0.00 0.00
10:15 am 10:15 Sunny 58 14.7 51 10.6 77 77 Calm 30.38 1029 10 16 0.00 0.00
10:35 am 10:35 Sunny 61 16 52 10.9 72 72 Calm 30.36 1028 10 16 0.00 0.00
10:55 am 10:55 Sunny 62 16.6 51 10.7 68 68 S 5 7 30.35 1028 10 16 0.00 0.00
11:15 am 11:15 Sunny 63 17.4 50 10.2 63 63 Calm 30.34 1027 10 16 0.00 0.00
11:35 am 11:35 Sunny 64 17.8 48 8.8 56 56 SW 3 6 30.33 1027 10 16 0.00 0.00
11:55 am 11:55 Sunny 64 18 48 8.9 55 55 SSW 7 11 30.33 1027 10 16 0.00 0.00
12:15 pm 12:15 Sunny 66 18.8 50 10 57 57 SW 5 7 30.32 1027 10 16 0.00 0.00
12:35 pm 12:35 Sunny 66 19.1 50 9.8 55 55 Calm 30.32 1027 10 16 0.00 0.00
12:55 pm 12:55 Sunny 67 19.5 47 8.1 48 48 Calm 30.31 1026 10 16 0.00 0.00
1:15 pm 13:15 Sunny 68 19.8 46 7.7 46 46 E 3 6 30.30 1026 10 16 0.00 0.00
1:35 pm 13:35 Sunny 67 19.7 47 8.4 48 48 WSW 5 7 30.30 1026 10 16 0.00 0.00
1:55 pm 13:55 Sunny 69 20.8 49 9.6 49 49 E 6 9 30.28 1025 10 16 0.00 0.00
2:15 pm 14:15 Sunny 69 20.6 48 8.9 47 47 ESE 10 17 30.27 1025 10 16 0.00 0.00
2:35 pm 14:35 Hazy 70 21.1 49 9.3 47 47 SSE 5 7 30.27 1025 7 11 0.00 0.00
2:55 pm 14:55 Sunny 71 21.7 49 9.2 45 45 S 5 7 30.26 1025 10 16 0.00 0.00
3:15 pm 15:15 Sunny 70 21.3 48 9.1 46 46 SSE 5 7 30.26 1025 10 16 0.00 0.00
3:35 pm 15:35 Sunny 71 21.4 48 9 45 45 E 5 7 30.25 1024 10 16 0.00 0.00
3:55 pm 15:55 Sunny 71 21.4 49 9.5 47 47 Calm 30.25 1024 10 16 0.00 0.00
4:15 pm 16:15 Sunny 73 22.6 51 10.3 46 46 ESE 8 13 30.24 1024 10 16 0.00 0.00
4:35 pm 16:35 Sunny 71 21.9 49 9.7 46 46 ESE 8 13 30.24 1024 10 16 0.00 0.00
4:55 pm 16:55 Sunny 73 22.8 49 9.7 43 43 S 7 11 30.23 1024 10 16 0.00 0.00
5:15 pm 17:15 Sunny 71 21.9 46 7.9 41 41 Calm 30.23 1024 10 16 0.00 0.00
5:35 pm 17:35 Sunny 73 22.7 49 9.2 42 42 SSW 6 9 30.23 1024 10 16 0.00 0.00
5:55 pm 17:55 Sunny 72 22.3 48 9.1 43 43 Calm 30.22 1023 10 16 0.00 0.00
6:15 pm 18:15 Sunny 71 21.7 48 9 44 44 Calm 30.22 1023 10 16 0.00 0.00
6:35 pm 18:35 Hazy 72 22.1 50 10.2 47 47 W 3 6 30.22 1023 3 4 0.00 0.00
6:55 pm 18:55 Sunny 73 22.6 48 8.8 41 41 Calm 30.21 1023 10 16 0.00 0.00
7:15 pm 19:15 Sunny 73 22.5 49 9.5 44 44 WNW 5 7 30.22 1023 10 16 0.00 0.00
7:35 pm 19:35 Sunny 72 22.4 50 10.2 46 46 E 3 6 30.22 1023 10 16 0.00 0.00
7:55 pm 19:55 Sunny 71 21.4 49 9.7 47 47 SSW 3 6 30.22 1023 10 16 0.00 0.00
8:15 pm 20:15 Sunny 70 20.9 49 9.6 49 49 S 5 7 30.22 1023 10 16 0.00 0.00
8:35 pm 20:35 Sunny 69 20.6 49 9.6 49 49 SSW 3 6 30.22 1023 10 16 0.00 0.00
8:55 pm 20:55 Sunny 63 17.2 55 12.9 76 76 Calm 30.23 1024 10 16 0.00 0.00
9:15 pm 21:15 Clear 62 16.7 56 13.6 82 82 Calm 30.23 1024 10 16 0.00 0.00
9:35 pm 21:35 Clear 60 15.7 56 13.1 85 85 Calm 30.23 1024 7 11 0.00 0.00
9:55 pm 21:55 Clear 58 14.5 55 13 91 91 Calm 30.24 1024 10 16 0.00 0.00
10:15 pm 22:15 Clear 58 14.3 55 12.7 90 90 Calm 30.24 1024 10 16 0.00 0.00
10:35 pm 22:35 Clear 57 14 55 12.7 92 92 Calm 30.25 1024 10 16 0.00 0.00
10:55 pm 22:55 Clear 56 13.6 54 12.3 92 92 NW 3 6 30.24 1024 10 16 0.00 0.00
11:15 pm 23:15 Clear 56 13.1 53 11.9 93 93 Calm 30.25 1024 7 11 0.00 0.00
11:35 pm 23:35 Clear 55 12.9 54 12.1 95 95 NNW 3 6 30.25 1024 10 16 0.00 0.00
11:55 pm 23:55 Clear 55 12.6 54 12 96 96 Calm 30.24 1024 10 16 0.00 0.00

Powered by AerisWeather